Stafford, VA

8:02 AM EDT on August 18, 2017 (GMT -0400)
Stafford

Weather History for KRMN - November, 2013

Change the Weather History Date:

Wednesday, November 20, 2013

  Actual Average (KNYG) Record (KNYG)
Temperature  
Mean Temperature 38 °F -  
Max Temperature 48 °F 53 °F 69 °F (1998)
Min Temperature 28 °F 36 °F 26 °F (2000)
Degree Days  
Heating Degree Days 28    
Moisture  
Dew Point 27 °F    
Average Humidity 69    
Maximum Humidity 100    
Minimum Humidity 42    
Precipitation  
Precipitation 0.00 in - - ()
Sea Level Pressure  
Sea Level Pressure 30.53 in    
Wind  
Wind Speed 4 mph (NNE)    
Max Wind Speed 10 mph    
Max Gust Speed -    
Visibility 10 miles    
Events      
Averages and records for this station are not official NWS values.
T = Trace of Precipitation, MM = Missing Value Source: NWS Daily Summary

Daily Weather History Graph

Daily Weather History Graph

Search for Another Location

Airport or City:

Trip Planner

Search our weather history database for the weather conditions in past years. The results will help you decide how hot, cold, wet, or windy it might be!

Date:

Astronomy

Nov. 20, 2013 Rise Set
Actual Time 6:57 AM EST 4:53 PM EST
Civil Twilight 6:28 AM EST 5:22 PM EST
Nautical Twilight 5:56 AM EST 5:54 PM EST
Astronomical Twilight 5:24 AM EST 6:26 PM EST
Moon 7:34 PM EST (11/20) 9:20 AM EST (11/20)
Length of Visible Light 10h 53m
Length of Day
9h 56m
Waning Gibbous, 91% of the Moon is Illuminated
Nov 20
Waning Gibbous
Nov 25
Last Quarter
Dec 2
New
Dec 9
First Quarter
Dec 17
Full

Hourly Weather History & Observations

Time (EST) Temp. Windchill Dew Point Humidity Pressure Visibility Wind Dir Wind Speed Gust Speed Precip Events Conditions
12:15 AM 37.4 °F - 26.1 °F 64% 30.42 in 10.0 mi Calm Calm - N/A   Clear
12:35 AM 36.7 °F - 26.1 °F 65% 30.42 in 10.0 mi Calm Calm - N/A   Clear
12:55 AM 35.2 °F 31.2 °F 26.2 °F 70% 30.43 in 10.0 mi North 4.6 mph - N/A   Clear
1:15 AM 32.2 °F 28.9 °F 26.6 °F 80% 30.44 in 10.0 mi NW 3.5 mph - N/A   Clear
1:35 AM 32.5 °F 28.1 °F 26.2 °F 78% 30.44 in 10.0 mi NNW 4.6 mph - N/A   Clear
1:55 AM 33.1 °F 28.7 °F 26.4 °F 77% 30.45 in 10.0 mi NNW 4.6 mph - N/A   Clear
2:15 AM 33.1 °F 28.7 °F 26.6 °F 77% 30.45 in 10.0 mi NW 4.6 mph - N/A   Clear
2:35 AM 33.3 °F 28.9 °F 26.6 °F 77% 30.46 in 10.0 mi NNW 4.6 mph - N/A   Clear
2:55 AM 32.9 °F 27.5 °F 26.6 °F 78% 30.46 in 10.0 mi NNW 5.8 mph - N/A   Clear
3:15 AM 34.2 °F 30.0 °F 26.4 °F 73% 30.47 in 10.0 mi NNW 4.6 mph - N/A   Clear
3:35 AM 32.9 °F 27.5 °F 26.1 °F 76% 30.47 in 10.0 mi NNW 5.8 mph - N/A   Clear
3:55 AM 33.6 °F 29.4 °F 25.7 °F 73% 30.47 in 10.0 mi North 4.6 mph - N/A   Clear
4:15 AM 33.6 °F 28.4 °F 25.7 °F 73% 30.48 in 10.0 mi North 5.8 mph - N/A   Clear
4:35 AM 32.9 °F 28.5 °F 25.7 °F 75% 30.49 in 10.0 mi NNW 4.6 mph - N/A   Clear
4:55 AM 32.4 °F 26.0 °F 26.1 °F 78% 30.49 in 10.0 mi NNW 6.9 mph - N/A   Clear
5:15 AM 33.8 °F 29.6 °F 25.3 °F 71% 30.49 in 10.0 mi North 4.6 mph - N/A   Clear
5:35 AM 34.0 °F 28.8 °F 24.8 °F 69% 30.50 in 10.0 mi North 5.8 mph - N/A   Clear
5:55 AM 34.7 °F 30.6 °F 24.8 °F 67% 30.51 in 10.0 mi North 4.6 mph - N/A   Clear
6:15 AM 34.7 °F 28.8 °F 24.6 °F 67% 30.51 in 10.0 mi North 6.9 mph - N/A   Clear
6:35 AM 34.7 °F 30.6 °F 24.4 °F 66% 30.52 in 10.0 mi North 4.6 mph - N/A   Clear
6:55 AM 34.7 °F 31.8 °F 24.4 °F 66% 30.53 in 10.0 mi North 3.5 mph - N/A   Clear
7:15 AM 34.7 °F 31.8 °F 24.8 °F 67% 30.53 in 10.0 mi NNW 3.5 mph - N/A   Clear
7:35 AM 35.1 °F 32.2 °F 24.8 °F 66% 30.55 in 10.0 mi North 3.5 mph - N/A   Clear
7:55 AM 35.6 °F 31.7 °F 24.8 °F 65% 30.55 in 10.0 mi North 4.6 mph - N/A   Clear
8:15 AM 36.5 °F 32.7 °F 25.2 °F 64% 30.56 in 10.0 mi North 4.6 mph - N/A   Clear
8:35 AM 37.4 °F 33.8 °F 25.3 °F 62% 30.57 in 10.0 mi North 4.6 mph - N/A   Clear
8:55 AM 38.3 °F 33.9 °F 25.5 °F 60% 30.58 in 10.0 mi NNE 5.8 mph - N/A   Clear
9:15 AM 39.2 °F 33.6 °F 25.9 °F 59% 30.58 in 10.0 mi NNE 8.1 mph - N/A   Clear
9:35 AM 40.1 °F 34.7 °F 26.6 °F 59% 30.59 in 10.0 mi NNE 8.1 mph - N/A   Clear
9:55 AM 40.5 °F 36.5 °F 26.6 °F 58% 30.59 in 10.0 mi NNE 5.8 mph - N/A   Clear
10:15 AM 41.9 °F 38.2 °F 27.1 °F 56% 30.59 in 10.0 mi NE 5.8 mph - N/A   Clear
10:35 AM 42.3 °F 36.3 °F 26.8 °F 54% 30.60 in 10.0 mi East 10.4 mph - N/A   Clear
10:55 AM 43.0 °F 37.7 °F 27.1 °F 54% 30.59 in 10.0 mi ENE 9.2 mph - N/A   Clear
11:15 AM 42.8 °F 41.1 °F 26.1 °F 52% 30.58 in 10.0 mi ENE 3.5 mph - N/A   Clear
11:35 AM 43.7 °F 40.3 °F 26.4 °F 51% 30.57 in 10.0 mi ENE 5.8 mph - N/A   Clear
11:55 AM 44.6 °F 40.7 °F 26.4 °F 49% 30.57 in 10.0 mi East 6.9 mph - N/A   Clear
12:15 PM 43.9 °F 42.3 °F 25.7 °F 49% 30.56 in 10.0 mi NE 3.5 mph - N/A   Clear
12:35 PM 45.3 °F 44.0 °F 26.6 °F 48% 30.56 in 10.0 mi ENE 3.5 mph - N/A   Clear
12:55 PM 45.7 °F - 26.4 °F 47% 30.54 in 10.0 mi Calm Calm - N/A   Clear
1:15 PM 46.2 °F 45.0 °F 25.9 °F 45% 30.53 in 10.0 mi NNE 3.5 mph - N/A   Clear
1:35 PM 46.6 °F - 26.6 °F 46% 30.53 in 10.0 mi East 3.5 mph - N/A   Clear
1:55 PM 47.7 °F - 26.6 °F 44% 30.52 in 10.0 mi ENE 5.8 mph - N/A   Clear
2:15 PM 47.5 °F - 25.5 °F 42% 30.52 in 10.0 mi East 8.1 mph - N/A   Clear
2:35 PM 47.8 °F - 25.7 °F 42% 30.52 in 10.0 mi ENE 5.8 mph - N/A   Clear
2:55 PM 47.7 °F - 26.4 °F 44% 30.52 in 10.0 mi ESE 9.2 mph - N/A   Clear
3:15 PM 47.3 °F - 26.2 °F 44% 30.52 in 10.0 mi ESE 8.1 mph - N/A   Clear
3:35 PM 47.3 °F - 26.6 °F 45% 30.52 in 10.0 mi ESE 8.1 mph - N/A   Clear
3:55 PM 46.6 °F - 26.6 °F 46% 30.53 in 10.0 mi East 6.9 mph - N/A   Clear
4:15 PM 45.5 °F 43.2 °F 26.6 °F 48% 30.53 in 10.0 mi East 4.6 mph - N/A   Clear
4:35 PM 43.7 °F - 27.1 °F 52% 30.53 in 10.0 mi Calm Calm - N/A   Clear
4:55 PM 43.5 °F - 28.0 °F 54% 30.54 in 10.0 mi Calm Calm - N/A   Clear
5:15 PM 40.5 °F 37.3 °F 28.8 °F 63% 30.54 in 10.0 mi East 4.6 mph - N/A   Clear
5:35 PM 39.7 °F 35.6 °F 28.9 °F 65% 30.55 in 10.0 mi ESE 5.8 mph - N/A   Clear
5:55 PM 40.1 °F 35.3 °F 29.8 °F 67% 30.55 in 10.0 mi East 6.9 mph - N/A   Clear
6:15 PM 39.7 °F 36.5 °F 31.1 °F 71% 30.56 in 10.0 mi East 4.6 mph - N/A   Clear
6:35 PM 40.1 °F - 31.8 °F 72% 30.56 in 10.0 mi Calm Calm - N/A   Clear
6:55 PM 39.2 °F 37.0 °F 32.0 °F 75% 30.56 in 10.0 mi ENE 3.5 mph - N/A   Clear
7:15 PM 36.1 °F - 30.0 °F 78% 30.56 in 10.0 mi Calm Calm - N/A   Clear
7:35 PM 34.9 °F - 29.8 °F 82% 30.57 in 10.0 mi Calm Calm - N/A   Clear
7:55 PM 33.3 °F - 30.0 °F 88% 30.57 in 10.0 mi Calm Calm - N/A   Clear
8:15 PM 32.7 °F - 32.2 °F 98% 30.57 in 10.0 mi Calm Calm - N/A   Clear
8:35 PM 32.0 °F - 32.0 °F 100% 30.58 in 10.0 mi Calm Calm - N/A   Clear
8:55 PM 32.0 °F - 32.0 °F 100% 30.58 in 10.0 mi Calm Calm - N/A   Clear
9:15 PM 31.3 °F - 31.3 °F 100% 30.58 in 10.0 mi Calm Calm - N/A   Clear
9:35 PM 31.3 °F - 31.3 °F 100% 30.58 in 10.0 mi Calm Calm - N/A   Clear
9:55 PM 30.7 °F - 30.7 °F 100% 30.58 in 10.0 mi Calm Calm - N/A   Clear
10:15 PM 30.9 °F - 30.9 °F 100% 30.59 in 10.0 mi Calm Calm - N/A   Clear
10:35 PM 30.4 °F - 30.4 °F 100% 30.59 in 10.0 mi Calm Calm - N/A   Clear
10:55 PM 30.4 °F - 30.4 °F 100% 30.58 in 10.0 mi Calm Calm - N/A   Clear
11:15 PM 29.3 °F - 29.3 °F 100% 30.58 in 10.0 mi Calm Calm - N/A   Clear
11:35 PM 28.4 °F - 28.4 °F 100% 30.59 in 10.0 mi Calm Calm - N/A   Clear
11:55 PM 29.7 °F - 29.7 °F 100% 30.59 in 10.0 mi Calm Calm - N/A   Scattered Clouds